AJM097A MKJS-TGPY

Flight info

Callsign AJM097A
Flight time 2h 24m
Altitude 33000
Route KEMBO3 KEMBO UG633 MLY UA511 GUTIM UL337 VUDAL
Aircraft A321/M-SDE3FGHIRWY/LB1

Departure

Time 2026-04-24 19:41
Airport Sangster International Airport (MKJS)

Arrival

Time 2026-04-24 22:05
Airport Maurice Bishop International Airport (TGPY)
Time Latitude Longitude Altitude Speed Heading
2026-04-24 18:54 18.49949 -77.91714 22 ft 0 kts 155°
2026-04-24 19:28 18.49965 -77.91721 22 ft 4 kts 160°
2026-04-24 19:28 18.49991 -77.91728 22 ft 4 kts 176°
2026-04-24 19:29 18.50024 -77.91717 22 ft 0 kts 245°
2026-04-24 19:35 18.50014 -77.91739 22 ft 8 kts 245°
2026-04-24 19:35 18.49978 -77.91820 22 ft 17 kts 245°
2026-04-24 19:35 18.49917 -77.91960 22 ft 25 kts 245°
2026-04-24 19:36 18.49843 -77.92130 22 ft 25 kts 245°
2026-04-24 19:36 18.49771 -77.92297 22 ft 25 kts 245°
2026-04-24 19:36 18.49737 -77.92399 22 ft 8 kts 294°
2026-04-24 19:36 18.49753 -77.92413 22 ft 0 kts 338°
2026-04-24 19:37 18.49754 -77.92413 22 ft 0 kts 338°
2026-04-24 19:37 18.49754 -77.92414 22 ft 0 kts 338°
2026-04-24 19:40 18.49758 -77.92415 22 ft 4 kts 338°
2026-04-24 19:40 18.49804 -77.92435 22 ft 9 kts 338°
2026-04-24 19:40 18.49877 -77.92449 22 ft 13 kts 40°
2026-04-24 19:40 18.49989 -77.92212 22 ft 70 kts 65°
2026-04-24 19:41 18.50292 -77.91510 22 ft 138 kts 65°
2026-04-24 19:41 18.50754 -77.90432 254 ft 169 kts 68°
2026-04-24 19:41 18.51192 -77.89286 1116 ft 171 kts 58°
2026-04-24 19:41 18.51938 -77.88305 1949 ft 173 kts 56°
2026-04-24 19:42 18.52315 -77.87056 2176 ft 188 kts 81°
2026-04-24 19:42 18.52671 -77.85705 2561 ft 198 kts 64°
2026-04-24 19:42 18.53595 -77.84615 2955 ft 208 kts 41°
2026-04-24 19:42 18.54767 -77.83699 3495 ft 212 kts 38°
2026-04-24 19:43 18.56002 -77.82754 3848 ft 227 kts 37°
2026-04-24 19:43 18.57145 -77.81570 4170 ft 238 kts 61°
2026-04-24 19:43 18.57536 -77.79866 4473 ft 246 kts 94°
2026-04-24 19:43 18.56961 -77.78170 4842 ft 254 kts 128°
2026-04-24 19:44 18.55647 -77.76838 5221 ft 267 kts 140°
2026-04-24 19:44 18.54252 -77.75552 6112 ft 266 kts 140°
2026-04-24 19:44 18.52857 -77.74265 6900 ft 268 kts 141°
2026-04-24 19:44 18.51430 -77.72949 7487 ft 277 kts 140°
2026-04-24 19:45 18.49968 -77.71603 7990 ft 281 kts 141°
2026-04-24 19:45 18.48492 -77.70243 8491 ft 284 kts 141°
2026-04-24 19:45 18.46999 -77.68863 8995 ft 287 kts 141°
2026-04-24 19:45 18.45493 -77.67469 9496 ft 290 kts 141°
2026-04-24 19:46 18.43971 -77.66061 9996 ft 292 kts 141°
2026-04-24 19:46 18.42423 -77.64625 10505 ft 303 kts 141°
2026-04-24 19:46 18.40805 -77.63124 11011 ft 317 kts 141°
2026-04-24 19:46 18.39113 -77.61554 11517 ft 331 kts 141°
2026-04-24 19:47 18.37353 -77.59921 12023 ft 343 kts 141°
2026-04-24 19:47 18.35541 -77.58231 12525 ft 352 kts 139°
2026-04-24 19:47 18.33980 -77.56225 13026 ft 358 kts 126°
2026-04-24 19:47 18.32653 -77.54032 13465 ft 362 kts 124°
2026-04-24 19:48 18.31332 -77.51763 13997 ft 365 kts 123°
2026-04-24 19:48 18.30001 -77.49469 14505 ft 369 kts 123°
2026-04-24 19:48 18.27304 -77.44815 15467 ft 376 kts 124°
2026-04-24 19:49 18.24557 -77.40075 16378 ft 383 kts 124°
2026-04-24 19:49 18.21777 -77.35232 17253 ft 390 kts 122°
2026-04-24 19:50 18.17933 -77.27557 18537 ft 400 kts 120°
2026-04-24 19:50 18.16639 -77.24958 18952 ft 403 kts 120°
2026-04-24 19:51 18.14016 -77.19692 19796 ft 409 kts 120°
2026-04-24 19:51 18.12694 -77.17040 20198 ft 412 kts 121°
2026-04-24 19:52 18.10013 -77.11664 20999 ft 417 kts 121°
2026-04-24 19:52 18.08674 -77.08983 21334 ft 421 kts 121°
2026-04-24 19:52 18.07313 -77.06255 21740 ft 423 kts 121°
2026-04-24 19:52 18.06018 -77.03665 22057 ft 426 kts 121°
2026-04-24 19:53 18.04636 -77.00898 22445 ft 428 kts 121°
2026-04-24 19:53 18.03247 -76.98120 22778 ft 431 kts 121°
2026-04-24 19:53 18.00440 -76.92508 23463 ft 436 kts 122°
2026-04-24 19:54 17.99029 -76.89685 23830 ft 437 kts 122°
2026-04-24 19:54 17.97612 -76.86853 24143 ft 440 kts 122°
2026-04-24 19:54 17.96187 -76.84008 24458 ft 442 kts 122°
2026-04-24 19:54 17.94754 -76.81147 24783 ft 444 kts 122°
2026-04-24 19:55 17.94264 -76.80169 24871 ft 445 kts 122°
2026-04-24 19:55 17.91993 -76.75295 25365 ft 451 kts 118°
2026-04-24 19:55 17.90721 -76.72269 25643 ft 453 kts 118°
2026-04-24 19:55 17.89455 -76.69237 25937 ft 455 kts 118°
2026-04-24 19:56 17.88181 -76.66187 26211 ft 457 kts 118°
2026-04-24 19:56 17.86902 -76.63128 26456 ft 459 kts 118°
2026-04-24 19:56 17.85617 -76.60052 26720 ft 461 kts 118°
2026-04-24 19:56 17.84326 -76.56966 26958 ft 463 kts 118°
2026-04-24 19:57 17.83032 -76.53872 27200 ft 465 kts 118°
2026-04-24 19:57 17.81730 -76.50760 27431 ft 466 kts 118°
2026-04-24 19:57 17.80425 -76.47640 27653 ft 468 kts 118°
2026-04-24 19:57 17.79130 -76.44547 27909 ft 469 kts 118°
2026-04-24 19:58 17.77814 -76.41405 28095 ft 471 kts 118°
2026-04-24 19:58 17.76493 -76.38253 28317 ft 473 kts 118°
2026-04-24 19:58 17.75167 -76.35092 28505 ft 474 kts 119°
2026-04-24 19:58 17.73841 -76.31931 28720 ft 475 kts 119°
2026-04-24 19:59 17.72500 -76.28739 28889 ft 478 kts 119°
2026-04-24 19:59 17.71158 -76.25545 29080 ft 479 kts 118°
2026-04-24 19:59 17.69815 -76.22351 29326 ft 479 kts 119°
2026-04-24 19:59 17.68470 -76.19152 29554 ft 479 kts 119°
2026-04-24 20:00 17.67123 -76.15953 29720 ft 481 kts 119°
2026-04-24 20:00 17.65770 -76.12739 29890 ft 483 kts 119°
2026-04-24 20:00 17.64412 -76.09517 30074 ft 484 kts 119°
2026-04-24 20:00 17.63049 -76.06284 30248 ft 485 kts 119°
2026-04-24 20:01 17.61679 -76.03039 30402 ft 487 kts 119°
2026-04-24 20:01 17.60307 -75.99788 30565 ft 489 kts 119°
2026-04-24 20:01 17.58927 -75.96524 30729 ft 490 kts 119°
2026-04-24 20:01 17.57546 -75.93255 30882 ft 491 kts 119°
2026-04-24 20:02 17.56626 -75.91083 30953 ft 493 kts 119°
2026-04-24 20:02 17.55235 -75.87795 31124 ft 494 kts 119°
2026-04-24 20:02 17.53838 -75.84494 31274 ft 496 kts 119°
2026-04-24 20:02 17.52438 -75.81187 31420 ft 497 kts 119°
2026-04-24 20:03 17.51034 -75.77876 31578 ft 498 kts 119°
2026-04-24 20:03 17.49625 -75.74553 31742 ft 499 kts 119°
2026-04-24 20:03 17.48211 -75.71221 31899 ft 500 kts 119°
2026-04-24 20:03 17.46799 -75.67894 32122 ft 500 kts 120°
2026-04-24 20:04 17.45386 -75.64568 32315 ft 500 kts 120°
2026-04-24 20:04 17.43971 -75.61238 32503 ft 500 kts 120°
2026-04-24 20:04 17.42558 -75.57914 32735 ft 499 kts 120°
2026-04-24 20:04 17.41143 -75.54590 32864 ft 501 kts 120°
2026-04-24 20:05 17.39724 -75.51259 32898 ft 501 kts 120°
2026-04-24 20:05 17.36895 -75.44617 32909 ft 499 kts 120°
2026-04-24 20:06 17.34066 -75.37988 32910 ft 498 kts 120°
2026-04-24 20:06 17.31239 -75.31369 32912 ft 500 kts 120°
2026-04-24 20:07 17.28863 -75.25815 32974 ft 506 kts 120°
2026-04-24 20:07 17.25503 -75.17964 33151 ft 511 kts 120°
2026-04-24 20:07 17.24048 -75.14565 33322 ft 510 kts 120°
2026-04-24 20:08 17.22602 -75.11186 33535 ft 509 kts 120°
2026-04-24 20:08 17.21152 -75.07803 33709 ft 509 kts 120°
2026-04-24 20:08 17.19704 -75.04431 33889 ft 508 kts 120°
2026-04-24 20:08 17.18256 -75.01058 34045 ft 508 kts 120°
2026-04-24 20:09 17.16810 -74.97692 34216 ft 507 kts 120°
2026-04-24 20:09 17.15367 -74.94334 34399 ft 506 kts 120°
2026-04-24 20:09 17.13927 -74.90984 34626 ft 504 kts 120°
2026-04-24 20:09 17.12490 -74.87645 34805 ft 504 kts 120°
2026-04-24 20:10 17.11047 -74.84295 34856 ft 506 kts 120°
2026-04-24 20:10 17.08163 -74.77600 34872 ft 503 kts 120°
2026-04-24 20:11 17.05283 -74.70923 34874 ft 504 kts 120°
2026-04-24 20:11 17.02408 -74.64265 34874 ft 502 kts 120°
2026-04-24 20:12 16.99535 -74.57616 34874 ft 503 kts 120°
2026-04-24 20:12 16.96648 -74.50945 34874 ft 504 kts 120°
2026-04-24 20:13 16.93763 -74.44285 34875 ft 503 kts 120°
2026-04-24 20:13 16.90886 -74.37649 34874 ft 502 kts 120°
2026-04-24 20:14 16.88020 -74.31047 34875 ft 502 kts 120°
2026-04-24 20:14 16.85137 -74.24411 34874 ft 501 kts 120°
2026-04-24 20:15 16.82253 -74.17783 34873 ft 501 kts 120°
2026-04-24 20:15 16.79372 -74.11163 34872 ft 500 kts 120°
2026-04-24 20:16 16.76494 -74.04563 34872 ft 500 kts 120°
2026-04-24 20:16 16.73612 -73.97958 34872 ft 500 kts 120°
2026-04-24 20:17 16.70735 -73.91371 34872 ft 498 kts 120°
2026-04-24 20:17 16.66423 -73.81512 34872 ft 498 kts 120°
2026-04-24 20:18 16.63543 -73.74934 34872 ft 498 kts 120°
2026-04-24 20:18 16.60660 -73.68358 34872 ft 498 kts 120°
2026-04-24 20:19 16.57778 -73.61790 34872 ft 498 kts 120°
2026-04-24 20:19 16.54893 -73.55223 34872 ft 498 kts 120°
2026-04-24 20:20 16.52003 -73.48653 34872 ft 498 kts 120°
2026-04-24 20:20 16.49104 -73.42156 34872 ft 498 kts 121°
2026-04-24 20:21 16.46186 -73.35618 34872 ft 498 kts 121°
2026-04-24 20:21 16.43268 -73.29070 34871 ft 498 kts 121°
2026-04-24 20:22 16.40356 -73.22530 34871 ft 498 kts 121°
2026-04-24 20:22 16.37443 -73.15983 34871 ft 498 kts 121°
2026-04-24 20:23 16.34528 -73.09432 34871 ft 498 kts 121°
2026-04-24 20:23 16.31617 -73.02892 34871 ft 497 kts 120°
2026-04-24 20:24 16.28708 -72.96359 34871 ft 498 kts 120°
2026-04-24 20:24 16.25797 -72.89823 34872 ft 498 kts 121°
2026-04-24 20:25 16.22870 -72.83298 34874 ft 497 kts 121°
2026-04-24 20:25 16.19952 -72.76797 34875 ft 496 kts 121°
2026-04-24 20:26 16.17034 -72.70293 34875 ft 496 kts 121°
2026-04-24 20:26 16.14111 -72.63780 34875 ft 496 kts 121°
2026-04-24 20:27 16.11212 -72.57320 34875 ft 498 kts 121°
2026-04-24 20:27 16.08276 -72.50780 34875 ft 499 kts 120°
2026-04-24 20:28 16.05339 -72.44238 34875 ft 499 kts 120°
2026-04-24 20:28 16.02404 -72.37704 34893 ft 498 kts 121°
2026-04-24 20:29 15.99473 -72.31186 34911 ft 498 kts 120°
2026-04-24 20:29 15.96517 -72.24690 34903 ft 497 kts 121°
2026-04-24 20:30 15.93545 -72.18202 34898 ft 497 kts 121°
2026-04-24 20:30 15.90574 -72.11714 34897 ft 497 kts 121°
2026-04-24 20:31 15.87604 -72.05224 34897 ft 497 kts 121°
2026-04-24 20:31 15.84630 -71.98728 34897 ft 497 kts 121°
2026-04-24 20:32 15.81660 -71.92242 34897 ft 497 kts 121°
2026-04-24 20:32 15.78689 -71.85757 34897 ft 497 kts 121°
2026-04-24 20:33 15.75723 -71.79286 34897 ft 496 kts 121°
2026-04-24 20:33 15.72755 -71.72819 34897 ft 496 kts 121°
2026-04-24 20:34 15.69805 -71.66392 34897 ft 496 kts 121°
2026-04-24 20:34 15.66841 -71.59942 34897 ft 495 kts 121°
2026-04-24 20:35 15.63874 -71.53489 34897 ft 495 kts 121°
2026-04-24 20:35 15.60912 -71.47052 34897 ft 494 kts 121°
2026-04-24 20:36 15.57952 -71.40624 34896 ft 493 kts 121°
2026-04-24 20:36 15.54997 -71.34215 34896 ft 492 kts 121°
2026-04-24 20:37 15.52079 -71.27790 34896 ft 493 kts 120°
2026-04-24 20:37 15.49209 -71.21356 34896 ft 491 kts 120°
2026-04-24 20:38 15.46341 -71.14916 34895 ft 492 kts 120°
2026-04-24 20:38 15.43477 -71.08482 34897 ft 491 kts 120°
2026-04-24 20:39 15.40621 -71.02061 34908 ft 490 kts 120°
2026-04-24 20:39 15.37764 -70.95640 34908 ft 490 kts 120°
2026-04-24 20:40 15.34862 -70.89260 34908 ft 489 kts 121°
2026-04-24 20:40 15.31941 -70.82902 34908 ft 488 kts 121°
2026-04-24 20:41 15.29024 -70.76551 34907 ft 488 kts 120°
2026-04-24 20:41 15.26132 -70.70253 34906 ft 487 kts 121°
2026-04-24 20:42 15.23218 -70.63908 34906 ft 487 kts 121°
2026-04-24 20:42 15.20305 -70.57568 34905 ft 487 kts 121°
2026-04-24 20:43 15.17396 -70.51238 34905 ft 486 kts 121°
2026-04-24 20:43 15.14485 -70.44910 34904 ft 486 kts 120°
2026-04-24 20:44 15.11573 -70.38583 34904 ft 486 kts 120°
2026-04-24 20:44 15.08687 -70.32299 34902 ft 487 kts 119°
2026-04-24 20:45 15.07589 -70.28961 34900 ft 495 kts 108°
2026-04-24 20:45 15.06955 -70.25443 34905 ft 498 kts 104°
2026-04-24 20:45 15.05831 -70.18377 34903 ft 498 kts 103°
2026-04-24 20:46 15.04725 -70.11311 34897 ft 497 kts 103°
2026-04-24 20:46 15.03626 -70.04243 34893 ft 497 kts 103°
2026-04-24 20:47 15.02462 -69.97202 34895 ft 495 kts 104°
2026-04-24 20:47 15.01289 -69.90186 34897 ft 495 kts 104°
2026-04-24 20:48 15.00117 -69.83161 34897 ft 495 kts 104°
2026-04-24 20:48 14.99145 -69.77331 34897 ft 495 kts 104°
2026-04-24 20:49 14.97969 -69.70312 34897 ft 495 kts 104°
2026-04-24 20:49 14.96608 -69.62162 34900 ft 495 kts 104°
2026-04-24 20:50 14.95628 -69.56288 34901 ft 495 kts 104°
2026-04-24 20:50 14.94459 -69.49284 34901 ft 495 kts 104°
2026-04-24 20:51 14.93287 -69.42262 34901 ft 495 kts 104°
2026-04-24 20:51 14.92116 -69.35257 34901 ft 495 kts 104°
2026-04-24 20:52 14.90938 -69.28246 34901 ft 494 kts 104°
2026-04-24 20:52 14.89725 -69.21260 34901 ft 494 kts 104°
2026-04-24 20:53 14.88517 -69.14311 34900 ft 494 kts 104°
2026-04-24 20:53 14.87306 -69.07321 34900 ft 494 kts 104°
2026-04-24 20:54 14.86110 -69.00326 34900 ft 494 kts 104°
2026-04-24 20:54 14.84915 -68.93330 34900 ft 494 kts 104°
2026-04-24 20:55 14.83730 -68.86343 34900 ft 494 kts 104°
2026-04-24 20:55 14.82522 -68.79351 34900 ft 494 kts 104°
2026-04-24 20:56 14.81300 -68.72368 34900 ft 494 kts 104°
2026-04-24 20:56 14.80078 -68.65385 34900 ft 494 kts 104°
2026-04-24 20:57 14.78857 -68.58416 34899 ft 493 kts 104°
2026-04-24 20:57 14.77634 -68.51442 34900 ft 493 kts 104°
2026-04-24 20:58 14.76408 -68.44457 34900 ft 493 kts 104°
2026-04-24 20:58 14.75183 -68.37490 34900 ft 493 kts 104°
2026-04-24 20:59 14.73965 -68.30572 34900 ft 493 kts 104°
2026-04-24 20:59 14.72730 -68.23614 34905 ft 493 kts 104°
2026-04-24 21:00 14.71495 -68.16644 34906 ft 493 kts 104°
2026-04-24 21:00 14.70262 -68.09682 34906 ft 492 kts 104°
2026-04-24 21:01 14.69030 -68.02729 34906 ft 492 kts 104°
2026-04-24 21:01 14.67793 -67.95773 34906 ft 493 kts 104°
2026-04-24 21:02 14.66551 -67.88805 34905 ft 493 kts 104°
2026-04-24 21:02 14.65310 -67.81837 34905 ft 493 kts 104°
2026-04-24 21:03 14.64070 -67.74878 34905 ft 492 kts 104°
2026-04-24 21:03 14.62831 -67.67924 34905 ft 492 kts 104°
2026-04-24 21:04 14.61598 -67.61018 34900 ft 492 kts 104°
2026-04-24 21:04 14.60349 -67.54023 34899 ft 492 kts 104°
2026-04-24 21:05 14.59107 -67.47077 34899 ft 492 kts 104°
2026-04-24 21:05 14.57871 -67.40173 34899 ft 492 kts 104°
2026-04-24 21:06 14.56624 -67.33219 34899 ft 492 kts 104°
2026-04-24 21:06 14.55419 -67.26253 34898 ft 493 kts 103°
2026-04-24 21:07 14.54259 -67.19278 34899 ft 493 kts 103°
2026-04-24 21:07 14.53101 -67.12297 34899 ft 493 kts 103°
2026-04-24 21:08 14.51943 -67.05320 34906 ft 493 kts 103°
2026-04-24 21:08 14.50787 -66.98351 34906 ft 492 kts 103°
2026-04-24 21:09 14.49630 -66.91383 34905 ft 492 kts 103°
2026-04-24 21:09 14.48474 -66.84425 34905 ft 492 kts 103°
2026-04-24 21:10 14.47323 -66.77506 34905 ft 492 kts 103°
2026-04-24 21:10 14.46164 -66.70548 34905 ft 491 kts 103°
2026-04-24 21:11 14.44800 -66.63660 34905 ft 489 kts 107°
2026-04-24 21:11 14.43186 -66.56837 34905 ft 489 kts 108°
2026-04-24 21:12 14.41834 -66.51132 34907 ft 488 kts 108°
2026-04-24 21:12 14.39965 -66.43228 34908 ft 488 kts 108°
2026-04-24 21:13 14.38353 -66.36411 34908 ft 488 kts 108°
2026-04-24 21:13 14.36747 -66.29614 34908 ft 487 kts 108°
2026-04-24 21:14 14.35142 -66.22821 34908 ft 487 kts 108°
2026-04-24 21:14 14.33546 -66.16069 34908 ft 487 kts 108°
2026-04-24 21:15 14.31941 -66.09287 34908 ft 487 kts 108°
2026-04-24 21:15 14.30333 -66.02494 34908 ft 487 kts 108°
2026-04-24 21:16 14.28726 -65.95715 34908 ft 486 kts 108°
2026-04-24 21:16 14.27119 -65.88940 34908 ft 486 kts 108°
2026-04-24 21:17 14.25512 -65.82173 34908 ft 486 kts 108°
2026-04-24 21:17 14.24169 -65.76549 34908 ft 486 kts 108°
2026-04-24 21:18 14.22262 -65.68642 34908 ft 486 kts 108°
2026-04-24 21:18 14.20634 -65.61874 34908 ft 487 kts 108°
2026-04-24 21:19 14.19007 -65.55106 34908 ft 486 kts 108°
2026-04-24 21:19 14.17392 -65.48383 34908 ft 487 kts 108°
2026-04-24 21:20 14.14952 -65.38225 34908 ft 487 kts 108°
2026-04-24 21:21 14.13325 -65.31452 34907 ft 487 kts 108°
2026-04-24 21:21 14.11699 -65.24692 34908 ft 486 kts 108°
2026-04-24 21:22 14.10073 -65.17934 34916 ft 486 kts 108°
2026-04-24 21:22 14.08087 -65.11323 34919 ft 479 kts 120°
2026-04-24 21:23 14.04271 -65.05869 34928 ft 466 kts 137°
2026-04-24 21:23 13.99791 -65.01030 34927 ft 466 kts 138°
2026-04-24 21:24 13.95321 -64.96236 34926 ft 463 kts 138°
2026-04-24 21:24 13.90856 -64.91462 34925 ft 463 kts 138°
2026-04-24 21:25 13.86361 -64.86717 34917 ft 463 kts 138°
2026-04-24 21:25 13.81864 -64.81986 34916 ft 462 kts 138°
2026-04-24 21:26 13.77362 -64.77259 34918 ft 462 kts 138°
2026-04-24 21:26 13.72886 -64.72562 34916 ft 450 kts 138°
2026-04-24 21:27 13.68520 -64.67989 34919 ft 452 kts 138°
2026-04-24 21:27 13.64091 -64.63360 34913 ft 462 kts 138°
2026-04-24 21:28 13.59584 -64.58651 34909 ft 461 kts 138°
2026-04-24 21:28 13.55083 -64.53950 34908 ft 462 kts 138°
2026-04-24 21:29 13.50576 -64.49248 34907 ft 462 kts 138°
2026-04-24 21:29 13.46066 -64.44546 34907 ft 462 kts 138°
2026-04-24 21:30 13.41561 -64.39855 34906 ft 461 kts 138°
2026-04-24 21:30 13.37044 -64.35182 34906 ft 461 kts 139°
2026-04-24 21:31 13.32522 -64.30505 34905 ft 462 kts 138°
2026-04-24 21:31 13.28000 -64.25827 34905 ft 461 kts 138°
2026-04-24 21:32 13.23481 -64.21153 34905 ft 461 kts 138°
2026-04-24 21:32 13.18959 -64.16477 34904 ft 461 kts 138°
2026-04-24 21:33 13.14448 -64.11812 34905 ft 461 kts 138°
2026-04-24 21:33 13.09935 -64.07148 34905 ft 460 kts 138°
2026-04-24 21:34 13.05424 -64.02487 34905 ft 460 kts 138°
2026-04-24 21:34 13.01677 -63.98618 34904 ft 460 kts 138°
2026-04-24 21:35 12.96439 -63.93212 34904 ft 459 kts 138°
2026-04-24 21:35 12.91938 -63.88568 34904 ft 459 kts 138°
2026-04-24 21:36 12.88163 -63.84674 34904 ft 459 kts 138°
2026-04-24 21:36 12.83662 -63.80035 34904 ft 459 kts 137°
2026-04-24 21:37 12.79156 -63.75396 34903 ft 459 kts 137°
2026-04-24 21:37 12.74647 -63.70769 34903 ft 458 kts 138°
2026-04-24 21:38 12.70143 -63.66149 34903 ft 458 kts 137°
2026-04-24 21:38 12.65668 -63.61556 34903 ft 458 kts 137°
2026-04-24 21:39 12.61141 -63.56910 34903 ft 458 kts 137°
2026-04-24 21:39 12.56772 -63.52421 34900 ft 435 kts 137°
2026-04-24 21:39 12.54647 -63.50240 34633 ft 432 kts 138°
2026-04-24 21:40 12.52505 -63.48045 33559 ft 441 kts 137°
2026-04-24 21:40 12.50313 -63.45800 32436 ft 452 kts 137°
2026-04-24 21:40 12.48159 -63.43410 31304 ft 463 kts 129°
2026-04-24 21:40 12.46494 -63.40541 30174 ft 475 kts 116°
2026-04-24 21:41 12.45528 -63.37286 29048 ft 485 kts 101°
2026-04-24 21:41 12.45163 -63.33830 27928 ft 490 kts 96°
2026-04-24 21:41 12.44853 -63.30350 26802 ft 493 kts 96°
2026-04-24 21:41 12.44551 -63.26852 25676 ft 495 kts 96°
2026-04-24 21:42 12.44254 -63.23343 24550 ft 495 kts 96°
2026-04-24 21:42 12.43961 -63.19838 23712 ft 490 kts 96°
2026-04-24 21:42 12.43677 -63.16394 22858 ft 484 kts 96°
2026-04-24 21:42 12.43399 -63.12985 22031 ft 477 kts 96°
2026-04-24 21:43 12.43132 -63.09692 21287 ft 470 kts 96°
2026-04-24 21:43 12.42860 -63.06309 20536 ft 464 kts 96°
2026-04-24 21:43 12.42598 -63.03045 19792 ft 458 kts 96°
2026-04-24 21:43 12.42341 -62.99813 19054 ft 453 kts 95°
2026-04-24 21:44 12.42089 -62.96623 18314 ft 448 kts 95°
2026-04-24 21:44 12.41839 -62.93465 17601 ft 443 kts 95°
2026-04-24 21:44 12.41592 -62.90340 16882 ft 438 kts 95°
2026-04-24 21:44 12.41348 -62.87254 16212 ft 434 kts 95°
2026-04-24 21:45 12.41105 -62.84188 15530 ft 430 kts 95°
2026-04-24 21:45 12.40865 -62.81152 14849 ft 426 kts 95°
2026-04-24 21:45 12.40628 -62.78150 14207 ft 422 kts 95°
2026-04-24 21:45 12.40393 -62.75170 13567 ft 418 kts 95°
2026-04-24 21:46 12.40160 -62.72217 13001 ft 412 kts 95°
2026-04-24 21:46 12.39935 -62.69358 12559 ft 404 kts 95°
2026-04-24 21:46 12.39709 -62.66492 12124 ft 396 kts 95°
2026-04-24 21:46 12.39492 -62.63748 11705 ft 389 kts 95°
2026-04-24 21:47 12.39276 -62.61005 11285 ft 385 kts 95°
2026-04-24 21:47 12.39062 -62.58287 10866 ft 382 kts 95°
2026-04-24 21:47 12.38853 -62.55630 10672 ft 367 kts 95°
2026-04-24 21:47 12.38652 -62.53086 10593 ft 350 kts 95°
2026-04-24 21:48 12.38460 -62.50657 10515 ft 335 kts 95°
2026-04-24 21:48 12.38276 -62.48340 10437 ft 320 kts 95°
2026-04-24 21:48 12.38099 -62.46119 10359 ft 306 kts 95°
2026-04-24 21:48 12.37930 -62.43997 10280 ft 293 kts 95°
2026-04-24 21:49 12.37769 -62.41962 10199 ft 281 kts 95°
2026-04-24 21:49 12.37611 -62.39984 10120 ft 278 kts 95°
2026-04-24 21:49 12.37455 -62.38017 10045 ft 277 kts 95°
2026-04-24 21:49 12.37300 -62.36055 9970 ft 277 kts 95°
2026-04-24 21:50 12.37144 -62.34091 9894 ft 276 kts 95°
2026-04-24 21:50 12.36989 -62.32136 9815 ft 276 kts 95°
2026-04-24 21:50 12.36835 -62.30177 9602 ft 275 kts 95°
2026-04-24 21:50 12.36680 -62.28233 9353 ft 273 kts 95°
2026-04-24 21:51 12.36528 -62.26305 9105 ft 270 kts 95°
2026-04-24 21:51 12.36376 -62.24394 8859 ft 269 kts 95°
2026-04-24 21:51 12.36225 -62.22493 8613 ft 268 kts 95°
2026-04-24 21:51 12.36075 -62.20606 8365 ft 265 kts 95°
2026-04-24 21:52 12.35925 -62.18729 8121 ft 264 kts 95°
2026-04-24 21:52 12.35759 -62.16865 7868 ft 262 kts 100°
2026-04-24 21:52 12.35072 -62.15166 7623 ft 260 kts 125°
2026-04-24 21:52 12.33732 -62.13941 7352 ft 261 kts 148°
2026-04-24 21:53 12.32136 -62.13074 7098 ft 259 kts 151°
2026-04-24 21:53 12.30535 -62.12237 6845 ft 258 kts 152°
2026-04-24 21:53 12.28942 -62.11415 6597 ft 256 kts 152°
2026-04-24 21:53 12.27352 -62.10602 6350 ft 255 kts 152°
2026-04-24 21:54 12.25768 -62.09796 6100 ft 253 kts 152°
2026-04-24 21:54 12.24213 -62.09007 5856 ft 252 kts 152°
2026-04-24 21:54 12.22622 -62.08202 5604 ft 251 kts 152°
2026-04-24 21:54 12.21063 -62.07415 5364 ft 247 kts 152°
2026-04-24 21:55 12.19557 -62.06654 5112 ft 244 kts 152°
2026-04-24 21:55 12.18040 -62.05888 4871 ft 243 kts 152°
2026-04-24 21:55 12.16526 -62.05125 4627 ft 242 kts 152°
2026-04-24 21:55 12.15021 -62.04366 4381 ft 240 kts 152°
2026-04-24 21:56 12.13527 -62.03613 4180 ft 238 kts 152°
2026-04-24 21:56 12.12258 -62.02973 4027 ft 239 kts 152°
2026-04-24 21:56 12.10769 -62.02223 3783 ft 238 kts 152°
2026-04-24 21:56 12.09254 -62.01540 3540 ft 239 kts 162°
2026-04-24 21:57 12.07635 -62.01146 3341 ft 239 kts 164°
2026-04-24 21:57 12.06056 -62.00773 3187 ft 227 kts 164°
2026-04-24 21:57 12.04573 -62.00425 3100 ft 211 kts 164°
2026-04-24 21:57 12.03186 -62.00098 3003 ft 199 kts 163°
2026-04-24 21:58 12.01948 -61.99543 2622 ft 192 kts 143°
2026-04-24 21:58 12.01090 -61.98583 2291 ft 176 kts 121°
2026-04-24 21:58 12.00704 -61.97456 2075 ft 165 kts 101°
2026-04-24 21:58 12.00625 -61.96321 1936 ft 156 kts 95°
2026-04-24 21:59 12.00580 -61.95273 1833 ft 145 kts 94°
2026-04-24 21:59 12.00546 -61.94235 1771 ft 146 kts 93°
2026-04-24 21:59 12.00444 -61.93209 1685 ft 146 kts 110°
2026-04-24 21:59 11.99740 -61.92487 1693 ft 151 kts 151°
2026-04-24 22:00 11.98685 -61.92463 1696 ft 160 kts 192°
2026-04-24 22:00 11.97825 -61.93191 1697 ft 168 kts 232°
2026-04-24 22:00 11.97590 -61.94359 1697 ft 173 kts 272°
2026-04-24 22:00 11.98107 -61.95444 1698 ft 172 kts 313°
2026-04-24 22:01 11.99135 -61.95961 1698 ft 165 kts 353°
2026-04-24 22:01 12.00203 -61.95710 1700 ft 157 kts 34°
2026-04-24 22:01 12.00804 -61.94861 1703 ft 149 kts 74°
2026-04-24 22:01 12.00802 -61.93825 1726 ft 146 kts 97°
2026-04-24 22:02 12.00740 -61.92786 1710 ft 146 kts 94°
2026-04-24 22:02 12.00676 -61.91751 1700 ft 146 kts 95°
2026-04-24 22:02 12.00604 -61.90716 1699 ft 146 kts 95°
2026-04-24 22:02 12.00527 -61.89681 1699 ft 146 kts 96°
2026-04-24 22:03 12.00450 -61.88645 1695 ft 147 kts 95°
2026-04-24 22:03 12.00430 -61.87598 1515 ft 147 kts 91°
2026-04-24 22:03 12.00431 -61.86556 1302 ft 147 kts 91°
2026-04-24 22:03 12.00430 -61.85518 1092 ft 146 kts 91°
2026-04-24 22:04 12.00429 -61.84484 888 ft 145 kts 91°
2026-04-24 22:04 12.00426 -61.83453 704 ft 145 kts 91°
2026-04-24 22:04 12.00442 -61.82424 534 ft 145 kts 91°
2026-04-24 22:04 12.00436 -61.81397 366 ft 144 kts 92°
2026-04-24 22:05 12.00422 -61.80371 182 ft 144 kts 92°
2026-04-24 22:05 12.00416 -61.79357 57 ft 137 kts 91°
2026-04-24 22:05 12.00412 -61.78661 56 ft 55 kts 91°
2026-04-24 22:05 12.00426 -61.78491 56 ft 11 kts 72°
2026-04-24 22:06 12.00405 -61.78469 56 ft 3 kts 229°
2026-04-24 22:06 12.00405 -61.78489 56 ft 3 kts 275°
2026-04-24 22:06 12.00408 -61.78525 56 ft 7 kts 276°
2026-04-24 22:06 12.00420 -61.78589 56 ft 11 kts 300°
2026-04-24 22:07 12.00475 -61.78596 56 ft 9 kts
2026-04-24 22:07 12.00547 -61.78593 56 ft 10 kts
2026-04-24 22:07 12.00590 -61.78560 56 ft 5 kts 86°
2026-04-24 22:07 12.00592 -61.78522 56 ft 5 kts 86°
2026-04-24 22:08 12.00597 -61.78492 56 ft 3 kts 50°
2026-04-24 22:08 12.00618 -61.78489 56 ft 3 kts 357°
2026-04-24 22:08 12.00637 -61.78489 56 ft 3 kts 359°
2026-04-24 22:08 12.00654 -61.78489 56 ft 2 kts 360°
2026-04-24 22:09 12.00663 -61.78489 56 ft 0 kts 360°